FALCON 9 R/B, 61911

Orbit data source: Space-Track

FALCON 9 R/B, 61911 is space debris in HEO originally from a launch on Mon, 11 Nov 2024 UTC launched from the Air Force Eastern Test Range (AFETR). Debris objects in space refer to the collection of defunct objects orbiting the Earth. Examples of debris include non-operational satellites, rocket bodies, and fragments generated from explosions, collisions, or faulty payload assembly.

Loading next visibility...
Identifier
61911, 2024-206B
Orbit
HEO
Country
Flag of USUS
Related business
Manufacturer
SpaceX
Mission
Spacecraft
Bus & Motor
F9ST2, Unknown motor
Mass
~4,000 kg wet, ~4,000 kg dry
Launch date (UTC)
2024-11-11 (2 years ago)
Launch vehicle
Unknown
Launch site
Air Force Eastern Test Range (AFETR)
Object type
Payload
Rocket body
Debris
Shape & HBR
Cyl, 7.8 m
Radar Cross Section
39.980 m², Large (>1 m²)

Expand to show TLE details & history
Last TLE update: 1 day ago

TLE from 1 day ago
0 FALCON 9 R/B
1 61911U 24206B   26170.91268088  .00032863  18796-6  19624-2 0  9993
2 61911  27.2873 280.2786 7160771 196.5489 114.8375  2.46621030 13897
Epoch: 2026-06-19T21:54Z
TLE epoch observation values (Epoch: 2026-06-19T21:54:15.628Z)
Latitude
0.00026°
Longitude
43.60472°
Altitude
29,617.194 km
Speed
2.219 km/s
True Right ascension
18h 41m 13s
True Declination
0° 00' 01"
Sunlit
Object was in daylight at epoch
Visualization orbit readout
Latitude
Unknown
Longitude
Unknown
Altitude
Unknown
Speed
Unknown
Apparent Right ascension
Unknown
Apparent Declination
Unknown
Sunlit
N/A
Visualization observer readout
Local Sidereal Time
10:20:29
Azimuth
Unknown
Elevation
Unknown
Doppler factor
Unknown
Orbital elements
Apogee altitude
33,340.172 km
Perigee altitude
193.21 km
Semi-major axis
23,144.828 km
Eccentricity
0.71608
Inclination
27.2873°
RAAN
280.2786°
Arg. of periapsis
196.5489°
True anomaly
163.50825°
Mean anomaly
114.8375°
Eccentric anomaly
140.77975°
Mean motion
0.6164 °/min
Orbital period
584.04 mins
BSTAR
0.0019624
Loading maneuver chart data...
Computing Atmospheric mass density...
Loading historical data...
Loading historical data...
Loading historical data...
Loading historical data...
Loading historical data...
Loading historical data...
Loading historical data...
Other satellites on launch #206 in the year 2024 (2024-11-11 UTC)

Documentation

Showing up to 5 results
|